    Observer details:
    113 Volkssternwarte Drebach, Schoenbrunn.  Observer G. Lehmann.  0.5-m f/4.6
        reflector + CCD.
    595 Farra d'Isonzo.  Observer E. Pettarin.  0.40-m f/5.15 reflector + CCD.
    718 Tooele.  Observer P. Wiggins.  0.35-m f/5.5 Schmidt-Cassegrain + CCD.
    B49 Paus Observatory, Sabadell.  Observer J. Camarasa.  0.30-m f/4 reflector +
        CCD.
    C43 Hoyerswerda.  Observer P. Lindner.  0.30-m f/6.3 Schmidt-Cassegrain + CCD.
    F51 Pan-STARRS 1, Haleakala.  Observers J. Bulger, K. Chambers, T. Lowe, A.
        Schultz, M. Willman.  Measurers S. Chastel, M. Huber, Y. Ramanjooloo, R.
        Wainscoat, R. Weryk.  1.8-m Ritchey-Chretien + CCD.
    G96 Mt. Lemmon Survey.  Observer G. J. Leonard.  Measurers E. J. Christensen,
        G. A. Farneth, D. C. Fuls, A. R. Gibbs, A. D. Grauer, H. Groeller, R. A.
        Kowalski, S. M. Larson, G. J. Leonard, T. A. Pruyne, D. Rankin, R. L.
        Seaman, F. C. Shelly, K. W. Wierzchos.  1.5-m reflector + 10K CCD.
    I52 Steward Observatory, Mt. Lemmon Station.  Observer K. W. Wierzchos.
        Measurers E. J. Christensen, G. A. Farneth, D. C. Fuls, A. R. Gibbs, A. D.
        Grauer, H. Groeller, R. A. Kowalski, S. M. Larson, G. J. Leonard, T. A.
        Pruyne, D. Rankin, R. L. Seaman, F. C. Shelly, K. W. Wierzchos.  1.0-m
        reflector + CCD.
    K61 Rokycany Observatory.  Observer M. Adamovsky.  0.51-m f/6.8 reflector +
        CCD.
    K63 G. Pascoli Observatory, Castelvecchio Pascoli.  Observer R. Bacci.  0.41-m
        f/3.2 Newtonian reflector + CCD.
    K83 Beppe Forti Astronomical Observatory, Montelupo.  Observers M. Tombelli,
        A. Mazzanti, E. Venticinque.  Measurers M. Tombelli, G. Interrante, F.
        Bernardi.  0.40-m f/8 Ritchey-Chretien + CCD.
    K88 GINOP-KHK, Piszkesteto.  Observer K. Sarneczky.  0.60-m Schmidt + CCD.
    L01 Visnjan Observatory, Tican.  Observers K. Korlevic, F. Hrzenjak.  Measurer
        K. Korlevic.  1.0-m f/2.9 reflector + CCD.
    L39 Osservatorio Spica, Signa.  Observers M. Bertini, L. Franchini.  0.30-m
        Newtonian reflector + CCD.
    
    Orbital elements:
    2021 BJ3                                                 Earth MOID = 0.0142 AU
    Epoch 2020 Dec. 17.0 TT = JDT 2459200.5                 Bell                    
    M 112.91305              (2000.0)            P               Q                  
    n   1.80883002     Peri.  352.91392     +0.58326700     +0.80281655             
    a   0.6671204      Node   312.67569     -0.73675799     +0.45878301             
    e   0.5207782      Incl.    9.68099     -0.34203401     +0.38079356             
    P   0.54           H   25.06          G   0.15           U   7                  
    Residuals in seconds of arc
    210115 F51  0.1-  0.1+    210131 B49  0.6+  0.5-    210131 K63  0.2-  0.2-
    210115 F51  0.0+  0.0-    210131 B49  0.1-  0.3-    210131 K88  1.1+  0.5+
    210115 F51  0.1+  0.1-    210131 K83  0.0-  0.0-    210131 K88  0.4-  0.0-
    210131 K88  5.0-  0.6-    210131 K83  0.2+  0.3+    210131 K88  0.6+  0.1-
    210131 K88  0.6+  0.6+    210131 K83  0.3+  0.5+    210131 K88  1.0+  0.3+
    210131 K88  2.2+  0.6+    210131 K88  0.0-  0.7-    210131 K88  0.5-  0.1-
    210131 K88  0.0+  0.1+    210131 K88  0.3-  0.2-    210131 K88  0.9+  0.5+
    210131 K88  0.9-  0.5-    210131 K88  0.1-  0.0+    210131 K88  1.3+  0.3+
    210131 K88  0.3+  0.1-    210131 K88  1.1+  0.2-    210131 L39  0.6-  0.4-
    210131 K88  0.8-  0.2-    210131 K88  0.7-  0.2-    210131 L39  0.4-  0.7+
    210131 K88  1.7+  0.8+    210131 K88  0.2+  0.2-    210131 L39  0.3-  0.0-
    210131 K88  0.6-  0.2-    210131 K88  0.0+  0.1-    210131 K88  0.7-  0.1-
    210131 K88  0.0+  0.1+    210131 K88  0.8+  0.8+    210201 K88  0.5-  0.5-
    210131 K88  0.3-  0.1+    210131 C43  0.3-  0.6-    210201 K88  0.2+  0.5-
    210131 K88  0.5-  0.2+    210131 C43  0.2+  0.1+    210201 L01  0.4+  0.1+
    210131 K88  0.6-  0.0+    210131 C43  0.2+  0.3+    210201 L01  0.4+  0.0-
    210131 K88  0.5-  0.3-    210131 C43  0.1+  0.1-    210201 L01  0.6+  0.1+
    210131 K88  0.3-  0.3+    210131 C43  0.5-  0.4-    210201 L01  0.4+  0.0-
    210131 K88  0.0+  0.4+    210131 K88  0.2-  0.1+    210201 K88  0.7+  0.6+
    210131 K88  0.2+  0.0-    210131 K88  0.5-  0.4-    210201 K88  1.0+  0.2-
    210131 K88  0.6+  0.1+    210131 K88  0.3-  0.3+    210201 K88  1.2+  0.2-
    210131 K61  0.3-  0.4+    210131 K88  1.5-  0.1-    210201 K88  0.5+  0.6+
    210131 K61  0.4-  0.4+    210131 K88  0.9+  1.3+    210201 G96 (1.3+  0.0-)
    210131 K61  0.3-  0.1+    210131 K88  0.5+  0.2-    210201 G96  0.3-  0.2+
    210131 K61  1.0-  0.0-    210131 K88  0.4-  0.1-    210201 G96  0.3-  0.1-
    210131 K61  1.1-  0.2+    210131 K88  0.4+  0.2+    210201 I52  0.3+  0.2-
    210131 K61  1.6-  0.3+    210131 K88  0.6+  0.1+    210201 I52  0.4+  0.0-
    210131 113 (2.2-  0.4+)   210131 595  0.0+  0.1+    210201 I52  0.4+  0.0-
    210131 113 (1.4-  0.0+)   210131 595  0.3-  0.4-    210201 718  0.9-  0.4-
    210131 113 (2.3-  0.3-)   210131 595  0.3+  0.5-    210201 718  0.9-  0.1-
    210131 B49  0.1+  0.6-    210131 K63  0.3+  0.2+    210201 718  0.9+  0.2+
    
    Ephemeris:
    2021 BJ3                 a,e,i = 0.67, 0.52, 10                  q = 0.3197
    Date    TT    R. A. (2000) Decl.     Delta      r    Elong.  Phase     V
    2021 01 02    13 35 45.5 +11 04 27   0.1807  0.9810    84.0    85.4    24.3
    ...
    2021 01 17    13 13 44.9 +14 12 05   0.09498 1.0118   104.5    70.3    22.4
    ...
    2021 01 25    12 18 16.1 +20 37 47   0.04900 1.0143   126.4    51.4    20.4
    ...
    2021 01 31    08 46 47.3 +30 30 35   0.02532 1.0098   166.8    12.8    17.9
    2021 02 01    07 41 36.2 +29 08 07   0.02491 1.0086   158.8    20.7    18.1
    2021 02 02    06 40 59.6 +25 58 41   0.02603 1.0071   146.0    33.1    18.5
    ...
    2021 02 08    03 53 44.1 +07 55 54   0.05134 0.9954    98.6    78.4    21.3
    ...
    2021 02 16    03 04 59.5 +00 47 22   0.09673 0.9712    77.3    97.1    23.4
    ...
    2021 03 03    02 34 07.6 -03 15 01   0.1818  0.8985    54.7   115.8    25.7
    
    M. P. C. Staff               (C) Copyright 2021 MPC           M.P.E.C. 2021-C02
    


    Read MPEC 2021-C01 Read MPEC 2021-C03


    MPEC number:

    Enter an MPEC number in one of the following forms:

    • 1997-B01 (the full form)
    • J97B01 (the packed version of the full form)
    • B01 (the abbreviated form)